Regional Weather Roundup
Issued by NWS

Home | Current Version | Previous Version | Text Only | Print | Product List | Glossary Off
Versions: 1 2 3 4 5 6 7 8 9 10 11 12 13 14 15 16 17 18 19 20 21 22 23 24 25 26 27 28 29 30 31 32 33 34 35 36 37 38 39 40 41 42 43 44 45 46 47 48 49 50

735
ASUS45 KABQ 071701
RWRNM
NEW MEXICO REGIONAL WEATHER ROUNDUP
NATIONAL WEATHER SERVICE ALBUQUERQUE NM
1000 AM MST SUN FEB 07 2016

NOTE: "FAIR" MEANS FEW OR NO CLOUDS BELOW 12,000 FEET AGL WITH NO
       SIGNIFICANT WEATHER OR OBSTRUCTIONS TO VISION.

      THIS PRODUCT IS RELEASED AS TWO VERSIONS.  ONE VERSION NEAR
      THE TOP OF THE HOUR CONTAINING PRELIMINARY DATA FROM ALBUQUERQUE
      AND OTHER STATIONS.  A FINAL VERSION WITH ADDITIONAL DATA IS
      ISSUED ABOUT 10 MINUTES AFTER THE HOUR.

NMZ501-503-504-510>518-071800-
NORTHWEST PLATEAU/NORTHCENTRAL MOUNTAINS

CITY           SKY/WX    TMP DP  RH WIND       PRES   REMARKS
FARMINGTON     CLOUDY    26  18  71 SE3       30.44R
SANTA FE       CLOUDY    36  15  42 N17       30.36R WCI  26
TAOS           CLOUDY    21  14  73 CALM      30.40R

$$
NMZ402-403-502-505>509-071800-
WESTCENTRAL MOUNTAINS/SOUTHWEST MOUNTAINS

CITY           SKY/WX    TMP DP  RH WIND       PRES   REMARKS
GALLUP         SUNNY     30  21  69 NW3       30.43S
SILVER CITY      N/A     50   7  17 CALM      30.35S

$$
NMZ407-409-411-412-071800-
SOUTHERN DESERTS

CITY           SKY/WX    TMP DP  RH WIND       PRES   REMARKS
DEMING         SUNNY     46  12  25 CALM      30.35R
HOLLOMAN AFB   SUNNY     46  11  24 SE2       30.32S
ALAMOGORDO     SUNNY     41   7  24 CALM      30.34S
T OR C         SUNNY     45  13  27 VRB5      30.37R

$$
NMZ519>523-071800-
CENTRAL VALLEYS/CENTRAL HIGHLANDS

CITY           SKY/WX    TMP DP  RH WIND       PRES   REMARKS
ALBUQUERQUE    MOSUNNY   42  16  34 N13       30.39S
DOUBLE EAGLE   MOSUNNY   43  16  33 NW14      30.38R
CLINES CORNERS SUNNY     38  18  44 NW16      30.29R WCI  29
BELEN          FAIR      41  13  32 CALM      30.39F
SOCORRO        NOT AVBL

$$
NMZ524>526-539-540-071800-
SOUTHCENTRAL MOUNTAINS

CITY           SKY/WX    TMP DP  RH WIND       PRES   REMARKS
RUIDOSO        NOT AVBL

$$
NMZ527>531-071800-
NORTHEAST HIGHLANDS/NORTHEAST PLAINS

CITY           SKY/WX    TMP DP  RH WIND       PRES   REMARKS
LAS VEGAS      CLOUDY    47  14  26 N7        30.29R
RATON          CLOUDY    45  18  34 NE6       30.26R
CLAYTON        SUNNY     48  20  32 N17G23    30.27R

$$
NMZ532>537-071800-
EASTCENTRAL PLAINS

CITY           SKY/WX    TMP DP  RH WIND       PRES   REMARKS
TUCUMCARI      SUNNY     50  20  30 NE10      30.27R
CANNON AFB     SUNNY     53  18  25 NE21      30.24R
CLOVIS AIRPORT SUNNY     52  19  28 NE22      30.26R

$$
NMZ028-029-538-071800-
SOUTHEAST PLAINS

CITY           SKY/WX    TMP DP  RH WIND       PRES   REMARKS
ROSWELL        SUNNY     52  16  24 E3        30.23R
ARTESIA        SUNNY     50  16  25 NE7       30.25R
CARLSBAD       SUNNY     52  17  25 NE6       30.22R
HOBBS          SUNNY     57  16  19 NW18G24   30.22R


$$




USA.gov is the U.S. government's official web portal to all federal, state and local government web resources and services.